McCook, NE

1:23 AM CST on December 18, 2017 (GMT -0600)
McCook Municipal

Weather History for KMCK - September, 2013

Change the Weather History Date:

Friday, September 13, 2013

  Actual Average Record
Temperature  
Mean Temperature 62 °F 66 °F  
Max Temperature 67 °F 81 °F 104 °F (1931)
Min Temperature 56 °F 51 °F 32 °F (2014)
Degree Days  
Heating Degree Days 4    
Growing Degree Days 10 (Base 50)    
Moisture  
Dew Point 54 °F    
Average Humidity 77    
Maximum Humidity 94    
Minimum Humidity 63    
Precipitation  
Precipitation 0.15 in 0.05 in 1.50 in (1985)
Month to date precipitation 0.56 0.65  
Year to date precipitation 9.73 18.36  
Sea Level Pressure  
Sea Level Pressure 30.14 in    
Wind  
Wind Speed 10 mph (SE)    
Max Wind Speed 17 mph    
Max Gust Speed 22 mph    
Visibility 9 miles    
Events Rain    
T = Trace of Precipitation, MM = Missing Value Source: NWS Daily Summary

Daily Weather History Graph

Daily Weather History Graph

Search for Another Location

Airport or City:

Trip Planner

Search our weather history database for the weather conditions in past years. The results will help you decide how hot, cold, wet, or windy it might be!

Date:

Astronomy

Sep. 13, 2013 Rise Set
Actual Time 7:21 AM CDT 7:53 PM CDT
Civil Twilight 6:54 AM CDT 8:21 PM CDT
Nautical Twilight 6:22 AM CDT 8:53 PM CDT
Astronomical Twilight 5:48 AM CDT 9:26 PM CDT
Moon 3:45 PM CDT (9/13) 12:52 AM CDT (9/13)
Length of Visible Light 13h 26m
Length of Day
12h 32m
First Quarter, 61% of the Moon is Illuminated
Sep 13
First Quarter
Sep 19
Full
Sep 26
Last Quarter
Oct 4
New
Oct 11
First Quarter

Hourly Weather History & Observations

Time (CDT) Temp. Dew Point Humidity Pressure Visibility Wind Dir Wind Speed Gust Speed Precip Events Conditions
12:53 AM 66.0 °F 57.9 °F 75% 30.18 in 10.0 mi East 9.2 mph - N/A   Overcast
1:53 AM 64.9 °F 57.0 °F 75% 30.18 in 10.0 mi East 8.1 mph - N/A   Overcast
2:53 AM 64.0 °F 55.0 °F 73% 30.17 in 10.0 mi East 8.1 mph - N/A   Overcast
3:53 AM 63.0 °F 55.0 °F 75% 30.17 in 10.0 mi ESE 10.4 mph - N/A   Overcast
4:53 AM 63.0 °F 54.0 °F 72% 30.17 in 10.0 mi ESE 11.5 mph - N/A   Overcast
5:53 AM 62.1 °F 52.0 °F 70% 30.18 in 10.0 mi SE 12.7 mph - N/A   Overcast
6:53 AM 61.0 °F 51.1 °F 70% 30.19 in 10.0 mi SE 9.2 mph - N/A   Overcast
7:53 AM 60.1 °F 53.1 °F 78% 30.19 in 5.0 mi SE 6.9 mph - 0.00 in Rain Light Rain
8:53 AM 59.0 °F 54.0 °F 83% 30.19 in 10.0 mi ESE 5.8 mph - 0.02 in   Overcast
9:53 AM 59.0 °F 54.0 °F 83% 30.19 in 10.0 mi SE 13.8 mph - 0.00 in   Overcast
10:36 AM 59.0 °F 55.4 °F 88% 30.22 in 10.0 mi SE 9.2 mph - 0.00 in   Overcast
10:44 AM 59.0 °F 55.4 °F 88% 30.23 in 10.0 mi SSE 11.5 mph - 0.00 in   Overcast
10:53 AM 59.0 °F 55.0 °F 87% 30.19 in 10.0 mi SSE 9.2 mph - 0.00 in   Overcast
11:05 AM 59.0 °F 53.6 °F 82% 30.23 in 10.0 mi South 17.3 mph 21.9 mph N/A   Overcast
11:53 AM 57.0 °F 53.1 °F 87% 30.20 in 5.0 mi SSE 10.4 mph - 0.00 in Rain Light Rain
12:41 PM 57.2 °F 53.6 °F 88% 30.22 in 2.5 mi SSE 8.1 mph - 0.05 in Rain Rain
12:50 PM 55.4 °F 53.6 °F 94% 30.22 in 2.5 mi SSE 8.1 mph - 0.07 in Rain Rain
12:53 PM 57.0 °F 54.0 °F 89% 30.19 in 3.0 mi SSE 8.1 mph - 0.07 in Rain Rain
1:12 PM 55.4 °F 53.6 °F 94% 30.21 in 3.0 mi SE 10.4 mph - 0.04 in Rain Rain
1:53 PM 57.0 °F 54.0 °F 89% 30.16 in 7.0 mi ESE 10.4 mph - 0.05 in Rain Light Rain
2:53 PM 60.1 °F 55.0 °F 83% 30.13 in 10.0 mi ESE 8.1 mph - 0.00 in   Overcast
3:53 PM 63.0 °F 54.0 °F 72% 30.09 in 10.0 mi SE 16.1 mph 19.6 mph 0.01 in   Overcast
4:53 PM 66.0 °F 53.1 °F 63% 30.07 in 10.0 mi SE 10.4 mph 19.6 mph N/A   Mostly Cloudy
5:36 PM 66.2 °F 53.6 °F 64% 30.09 in 10.0 mi ESE 11.5 mph - N/A   Mostly Cloudy
5:53 PM 66.9 °F 54.0 °F 63% 30.04 in 10.0 mi ESE 11.5 mph - N/A   Overcast
6:53 PM 66.0 °F 54.0 °F 65% 30.03 in 10.0 mi ESE 15.0 mph - N/A   Overcast
7:53 PM 64.9 °F 54.0 °F 68% 30.02 in 10.0 mi ESE 11.5 mph - N/A   Overcast
8:53 PM 64.0 °F 52.0 °F 65% 30.03 in 10.0 mi SE 12.7 mph - N/A   Overcast
9:53 PM 62.1 °F 52.0 °F 70% 30.04 in 10.0 mi ESE 11.5 mph - N/A   Mostly Cloudy
10:15 PM 60.8 °F 51.8 °F 72% 30.06 in 10.0 mi ESE 8.1 mph - N/A   Mostly Cloudy
10:53 PM 61.0 °F 51.1 °F 70% 30.03 in 10.0 mi SE 10.4 mph - N/A   Mostly Cloudy
11:53 PM 60.1 °F 52.0 °F 75% 30.04 in 10.0 mi SSE 6.9 mph - N/A   Overcast